N395T KACK-KFOK

Flight info

Callsign N395T
Flight time 0h 35m
Altitude 10000
Route MVY V374 GON
Aircraft PC12/L-SDFGRWY/S

Departure

Time 2026-04-22 21:52
Airport Nantucket Memorial Airport (KACK)

Arrival

Time 2026-04-22 22:27
Airport Francis S Gabreski Airport (KFOK)
Time Latitude Longitude Altitude Speed Heading
2026-04-22 21:38 41.25576 -70.06517 55 ft 0 kts 314°
2026-04-22 21:48 41.25578 -70.06519 55 ft 0 kts 314°
2026-04-22 21:48 41.25574 -70.06549 46 ft 6 kts 221°
2026-04-22 21:49 41.25542 -70.06590 45 ft 7 kts 219°
2026-04-22 21:49 41.25502 -70.06573 45 ft 7 kts 136°
2026-04-22 21:49 41.25468 -70.06526 44 ft 7 kts 135°
2026-04-22 21:49 41.25443 -70.06472 44 ft 8 kts 67°
2026-04-22 21:50 41.25489 -70.06406 45 ft 12 kts 46°
2026-04-22 21:50 41.25560 -70.06312 46 ft 16 kts 45°
2026-04-22 21:50 41.25644 -70.06199 48 ft 18 kts 45°
2026-04-22 21:50 41.25726 -70.06093 49 ft 14 kts 44°
2026-04-22 21:51 41.25727 -70.05981 49 ft 23 kts 134°
2026-04-22 21:51 41.25486 -70.05661 50 ft 72 kts 136°
2026-04-22 21:51 41.25102 -70.05115 246 ft 84 kts 130°
2026-04-22 21:52 41.24166 -70.04031 979 ft 96 kts 169°
2026-04-22 21:52 41.23561 -70.04292 1524 ft 103 kts 225°
2026-04-22 21:52 41.23339 -70.05300 1908 ft 127 kts 255°
2026-04-22 21:52 41.23244 -70.06546 2343 ft 142 kts 259°
2026-04-22 21:53 41.23281 -70.07930 2776 ft 160 kts 275°
2026-04-22 21:53 41.23644 -70.09345 3358 ft 162 kts 285°
2026-04-22 21:53 41.24069 -70.10752 3805 ft 165 kts 287°
2026-04-22 21:53 41.24500 -70.12142 4259 ft 165 kts 287°
2026-04-22 21:54 41.24939 -70.13552 4730 ft 165 kts 287°
2026-04-22 21:54 41.25375 -70.14951 5192 ft 163 kts 287°
2026-04-22 21:54 41.25807 -70.16344 5653 ft 162 kts 288°
2026-04-22 21:54 41.26237 -70.17731 6121 ft 162 kts 288°
2026-04-22 21:55 41.26666 -70.19116 6588 ft 161 kts 289°
2026-04-22 21:55 41.27093 -70.20496 7024 ft 161 kts 289°
2026-04-22 21:55 41.27517 -70.21863 7468 ft 160 kts 289°
2026-04-22 21:55 41.27938 -70.23224 7916 ft 158 kts 290°
2026-04-22 21:56 41.28354 -70.24571 8377 ft 157 kts 290°
2026-04-22 21:56 41.28768 -70.25908 8837 ft 156 kts 290°
2026-04-22 21:56 41.29152 -70.27246 9306 ft 153 kts 279°
2026-04-22 21:56 41.28962 -70.28592 9785 ft 152 kts 256°
2026-04-22 21:57 41.28668 -70.30012 10000 ft 173 kts 259°
2026-04-22 21:57 41.28369 -70.31674 10013 ft 195 kts 259°
2026-04-22 21:57 41.28046 -70.33503 10011 ft 210 kts 259°
2026-04-22 21:57 41.27700 -70.35444 10006 ft 220 kts 259°
2026-04-22 21:58 41.27340 -70.37447 10003 ft 226 kts 259°
2026-04-22 21:58 41.26973 -70.39490 10001 ft 230 kts 259°
2026-04-22 21:58 41.26595 -70.41591 9997 ft 233 kts 259°
2026-04-22 21:58 41.26219 -70.43677 9998 ft 234 kts 259°
2026-04-22 21:59 41.25838 -70.45790 9999 ft 234 kts 259°
2026-04-22 21:59 41.25457 -70.47901 9994 ft 235 kts 259°
2026-04-22 21:59 41.25075 -70.50013 9998 ft 235 kts 259°
2026-04-22 21:59 41.24693 -70.52128 9995 ft 236 kts 259°
2026-04-22 22:00 41.24309 -70.54249 9997 ft 236 kts 259°
2026-04-22 22:00 41.23925 -70.56371 9990 ft 236 kts 259°
2026-04-22 22:00 41.23539 -70.58499 9990 ft 236 kts 259°
2026-04-22 22:00 41.23156 -70.60615 9988 ft 236 kts 259°
2026-04-22 22:01 41.22770 -70.62744 9995 ft 237 kts 259°
2026-04-22 22:01 41.22385 -70.64861 9997 ft 239 kts 259°
2026-04-22 22:01 41.21991 -70.67020 9994 ft 241 kts 259°
2026-04-22 22:01 41.21597 -70.69178 9991 ft 240 kts 259°
2026-04-22 22:02 41.21205 -70.71323 9994 ft 239 kts 259°
2026-04-22 22:02 41.20814 -70.73465 9990 ft 238 kts 259°
2026-04-22 22:02 41.20423 -70.75598 9991 ft 238 kts 259°
2026-04-22 22:02 41.20033 -70.77729 9993 ft 237 kts 259°
2026-04-22 22:03 41.19641 -70.79862 9988 ft 237 kts 259°
2026-04-22 22:03 41.19250 -70.81993 9990 ft 237 kts 259°
2026-04-22 22:03 41.18859 -70.84119 9990 ft 237 kts 259°
2026-04-22 22:03 41.18475 -70.86212 9988 ft 237 kts 259°
2026-04-22 22:04 41.18083 -70.88337 9986 ft 236 kts 259°
2026-04-22 22:04 41.17692 -70.90457 9989 ft 236 kts 259°
2026-04-22 22:04 41.17301 -70.92572 9986 ft 236 kts 259°
2026-04-22 22:04 41.16909 -70.94696 9987 ft 237 kts 259°
2026-04-22 22:05 41.16516 -70.96818 9984 ft 237 kts 259°
2026-04-22 22:05 41.16123 -70.98940 9984 ft 237 kts 259°
2026-04-22 22:05 41.15729 -71.01062 9986 ft 237 kts 259°
2026-04-22 22:05 41.15335 -71.03185 9983 ft 237 kts 259°
2026-04-22 22:06 41.14940 -71.05309 9978 ft 237 kts 258°
2026-04-22 22:06 41.14545 -71.07430 9981 ft 237 kts 259°
2026-04-22 22:06 41.14150 -71.09549 9977 ft 236 kts 258°
2026-04-22 22:06 41.13757 -71.11660 9979 ft 236 kts 258°
2026-04-22 22:07 41.13362 -71.13776 9975 ft 236 kts 259°
2026-04-22 22:07 41.12967 -71.15884 9974 ft 235 kts 258°
2026-04-22 22:07 41.12574 -71.17986 9972 ft 235 kts 259°
2026-04-22 22:07 41.12181 -71.20086 9972 ft 235 kts 259°
2026-04-22 22:08 41.11786 -71.22192 9973 ft 235 kts 259°
2026-04-22 22:08 41.11390 -71.24301 9971 ft 236 kts 259°
2026-04-22 22:08 41.11024 -71.26249 9970 ft 235 kts 259°
2026-04-22 22:08 41.10627 -71.28358 9971 ft 235 kts 258°
2026-04-22 22:09 41.10232 -71.30457 9970 ft 235 kts 258°
2026-04-22 22:09 41.09836 -71.32557 9970 ft 235 kts 258°
2026-04-22 22:09 41.09440 -71.34655 9967 ft 235 kts 258°
2026-04-22 22:09 41.09047 -71.36731 9965 ft 235 kts 259°
2026-04-22 22:10 41.08650 -71.38831 9965 ft 235 kts 258°
2026-04-22 22:10 41.08251 -71.40939 9966 ft 236 kts 259°
2026-04-22 22:10 41.07851 -71.43049 9965 ft 236 kts 258°
2026-04-22 22:10 41.07449 -71.45167 9961 ft 237 kts 258°
2026-04-22 22:11 41.07047 -71.47284 9961 ft 237 kts 258°
2026-04-22 22:11 41.06646 -71.49392 9962 ft 236 kts 259°
2026-04-22 22:11 41.06245 -71.51499 9962 ft 235 kts 259°
2026-04-22 22:11 41.05848 -71.53584 9964 ft 234 kts 259°
2026-04-22 22:12 41.05447 -71.55689 9845 ft 237 kts 258°
2026-04-22 22:12 41.05041 -71.57818 9716 ft 239 kts 258°
2026-04-22 22:12 41.04630 -71.59965 9581 ft 241 kts 258°
2026-04-22 22:12 41.04217 -71.62120 9446 ft 241 kts 258°
2026-04-22 22:13 41.03803 -71.64279 9315 ft 242 kts 258°
2026-04-22 22:13 41.03390 -71.66436 9185 ft 242 kts 258°
2026-04-22 22:13 41.02974 -71.68598 9049 ft 242 kts 258°
2026-04-22 22:13 41.02565 -71.70727 8923 ft 242 kts 258°
2026-04-22 22:14 41.02149 -71.72887 8782 ft 242 kts 258°
2026-04-22 22:14 41.01733 -71.75045 8659 ft 242 kts 258°
2026-04-22 22:14 41.01316 -71.77206 8530 ft 242 kts 258°
2026-04-22 22:14 41.00901 -71.79358 8404 ft 241 kts 258°
2026-04-22 22:15 41.00485 -71.81510 8274 ft 240 kts 258°
2026-04-22 22:15 41.00073 -71.83640 8145 ft 239 kts 258°
2026-04-22 22:15 40.99660 -71.85772 8020 ft 238 kts 258°
2026-04-22 22:15 40.99248 -71.87893 7866 ft 238 kts 258°
2026-04-22 22:16 40.98835 -71.90026 7663 ft 239 kts 258°
2026-04-22 22:16 40.98420 -71.92158 7462 ft 239 kts 258°
2026-04-22 22:16 40.98005 -71.94293 7265 ft 239 kts 258°
2026-04-22 22:16 40.97594 -71.96400 7065 ft 239 kts 258°
2026-04-22 22:17 40.97179 -71.98529 6867 ft 239 kts 258°
2026-04-22 22:17 40.96764 -72.00657 6666 ft 239 kts 258°
2026-04-22 22:17 40.96349 -72.02782 6474 ft 239 kts 258°
2026-04-22 22:17 40.95933 -72.04907 6263 ft 239 kts 257°
2026-04-22 22:18 40.95517 -72.07031 6038 ft 239 kts 257°
2026-04-22 22:18 40.95100 -72.09158 5828 ft 238 kts 257°
2026-04-22 22:18 40.94684 -72.11280 5622 ft 238 kts 256°
2026-04-22 22:18 40.94269 -72.13389 5419 ft 237 kts 257°
2026-04-22 22:19 40.93855 -72.15497 5209 ft 235 kts 256°
2026-04-22 22:19 40.93448 -72.17567 5006 ft 232 kts 255°
2026-04-22 22:19 40.93044 -72.19619 4799 ft 228 kts 255°
2026-04-22 22:19 40.92647 -72.21629 4589 ft 225 kts 255°
2026-04-22 22:20 40.92251 -72.23630 4376 ft 224 kts 255°
2026-04-22 22:20 40.91859 -72.25614 4191 ft 222 kts 255°
2026-04-22 22:20 40.91477 -72.27545 4063 ft 219 kts 255°
2026-04-22 22:20 40.91086 -72.29521 3930 ft 218 kts 255°
2026-04-22 22:21 40.90708 -72.31427 3806 ft 217 kts 255°
2026-04-22 22:21 40.90324 -72.33364 3673 ft 216 kts 254°
2026-04-22 22:21 40.89942 -72.35285 3547 ft 216 kts 254°
2026-04-22 22:21 40.89559 -72.37209 3419 ft 218 kts 254°
2026-04-22 22:22 40.89171 -72.39164 3294 ft 219 kts 254°
2026-04-22 22:22 40.88782 -72.41118 3161 ft 220 kts 253°
2026-04-22 22:22 40.88392 -72.43074 3032 ft 221 kts 253°
2026-04-22 22:22 40.87998 -72.45044 2855 ft 221 kts 253°
2026-04-22 22:23 40.87607 -72.47007 2706 ft 221 kts 253°
2026-04-22 22:23 40.87210 -72.48991 2547 ft 224 kts 253°
2026-04-22 22:23 40.86817 -72.50957 2387 ft 218 kts 253°
2026-04-22 22:23 40.86550 -72.52863 2208 ft 209 kts 262°
2026-04-22 22:24 40.86599 -72.54138 1991 ft 210 kts 275°
2026-04-22 22:24 40.87305 -72.56363 1572 ft 194 kts 301°
2026-04-22 22:24 40.88045 -72.57616 1582 ft 166 kts 305°
2026-04-22 22:24 40.88592 -72.58699 1396 ft 157 kts 290°
2026-04-22 22:25 40.88804 -72.59549 1355 ft 133 kts 274°
2026-04-22 22:25 40.88812 -72.60694 1171 ft 122 kts 258°
2026-04-22 22:25 40.88671 -72.62153 1049 ft 120 kts 250°
2026-04-22 22:25 40.88488 -72.62813 964 ft 107 kts 235°
2026-04-22 22:26 40.88059 -72.63591 756 ft 106 kts 222°
2026-04-22 22:26 40.87536 -72.64234 666 ft 102 kts 214°
2026-04-22 22:26 40.86919 -72.64663 588 ft 99 kts 196°
2026-04-22 22:26 40.86260 -72.64869 507 ft 96 kts 184°
2026-04-22 22:27 40.85619 -72.64848 387 ft 89 kts 164°
2026-04-22 22:27 40.85082 -72.64474 230 ft 87 kts 137°
2026-04-22 22:27 40.84682 -72.63902 80 ft 82 kts 132°
2026-04-22 22:27 40.84352 -72.63435 54 ft 48 kts 133°
2026-04-22 22:28 40.84218 -72.63254 58 ft 8 kts 165°
2026-04-22 22:28 40.84191 -72.63366 58 ft 21 kts 268°
2026-04-22 22:28 40.84183 -72.63571 53 ft 23 kts 266°
2026-04-22 22:28 40.84176 -72.63759 57 ft 18 kts 268°
2026-04-22 22:29 40.84174 -72.63868 58 ft 9 kts 275°
2026-04-22 22:29 40.84225 -72.63894 60 ft 9 kts 359°
2026-04-22 22:29 40.84290 -72.63901 61 ft 10 kts 345°
2026-04-22 22:29 40.84360 -72.63939 61 ft 12 kts 358°
2026-04-22 22:30 40.84400 -72.63982 61 ft 9 kts 269°
2026-04-22 22:30 40.84364 -72.64024 55 ft 4 kts 227°
2026-04-22 22:30 40.84364 -72.64061 61 ft 4 kts 336°
2026-04-22 22:30 40.84374 -72.64063 59 ft 0 kts 358°